Temp
5 5 5 5 5 5 5 5 5 5 6 6 6 6 6 6 6 6 6 6 6 7 7 7 7 7 6 6 6 6 6 6 6 6 6 6 5 5 5 5 5 5 5 5 4 4 4
5 5 5 5 5 5 5 5 5 5 5 5 5 5 5 5 5 5 5 6 6 6 6 7 7 6 7 6 6 6 6 5 5 5 5 5 5 5 4 5 4 4 4 4 4 3 3
5 5 5 5 5 5 5 5 5 5 5 5 5 5 5 5 5 5 5 5 5 5 5 6 6 6 6 6 6 6 5 5 5 5 4 4 4 4 4 4 3 3 3 3 3 3 3
5 5 5 5 5 5 5 5 5 5 5 5 5 5 5 5 5 4 4 4 5 5 5 6 6 6 6 6 5 5 5 4 4 4 4 3 2 2 2 3 3 2 2 1 2 2 2
5 5 4 5 5 5 5 5 5 5 5 5 4 4 4 4 4 4 4 4 4 5 5 5 5 5 5 5 5 5 5 4 4 4 4 3 3 2 1 1 2 2 1 1 2 2 1
4 4 4 5 5 5 4 4 4 4 4 4 4 4 4 4 4 4 4 4 4 4 4 5 5 5 4 4 4 4 4 4 4 3 3 3 2 1 1 1 2 2 2 1 2 2 2
4 4 4 4 4 4 4 4 3 3 3 3 3 3 3 3 3 3 3 3 3 4 4 4 4 4 4 4 3 3 3 3 3 3 3 3 3 3 2 2 1 0 -0 -0 0 0 0
3 4 4 3 4 3 3 3 3 3 3 3 2 2 2 2 2 2 3 3 3 3 3 3 3 3 3 3 3 2 2 2 2 2 2 2 2 2 1 1 1 0 -0 -1 -1 -1 -1
3 3 3 3 3 3 3 3 3 2 2 2 2 2 2 2 2 2 2 2 2 2 3 3 2 2 2 2 1 1 2 2 2 2 1 1 1 1 0 0 -0 0 -0 -1 -1 -1 -1
2 2 2 2 2 2 2 2 2 2 2 2 2 2 2 2 2 2 1 2 2 2 2 2 2 2 2 2 1 2 1 1 1 1 1 1 1 0 -0 -1 -1 -1 -1 -1 -1 -2 -3
1 1 1 2 1 2 2 2 2 2 2 2 1 1 1 1 1 1 1 1 1 1 -1 1 2 2 2 2 2 2 2 1 1 1 1 1 1 1 0 -0 -1 -1 -2 -2 -3 -4 -5
1 1 1 1 1 0 1 1 1 1 1 1 1 1 1 1 1 0 1 1 1 1 -0 1 1 1 1 2 2 2 1 1 1 1 1 1 0 0 -0 -1 -1 -2 -2 -3 -4 -5 -9
0 0 0 0 0 0 0 1 1 1 1 1 1 0 0 0 0 0 0 0 0 1 1 1 1 1 0 1 1 1 1 1 0 -0 0 -1 -0 -1 -1 -2 -3 -3 -4 -3 -7 -9 -8
-0 -0 0 0 0 0 1 0 1 0 0 1 0 -0 -0 -0 -0 -0 0 -0 -0 0 0 0 -0 -0 -0 -1 -0 -0 -0 0 0 -1 -2 -2 -2 -1 -2 -2 -4 -4 -5 -3 -6 -9 -9
-1 -0 0 0 0 0 -0 -0 0 0 0 -0 -0 -1 -1 -1 -1 -0 -1 -1 -0 -1 -1 -1 -2 -1 -1 -1 -1 -2 -1 -1 -1 -2 -2 -2 -3 -3 -3 -3 -4 -6 -6 -5 -5 -6 -11
-0 -1 -0 -0 -0 0 0 0 0 0 -0 -0 -1 -1 -1 -1 -1 -1 -1 -1 -1 -1 -2 -2 -2 -2 -2 -2 -3 -3 -2 -2 -2 -2 -3 -4 -4 -4 -4 -5 -6 -5 -6 -7 -6 -7 -9
0 -0 0 -0 -0 0 0 -0 -0 -0 -0 -1 -1 -1 -1 -1 -1 -1 -2 -2 -2 -2 -2 -2 -2 -3 -3 -3 -3 -4 -3 -3 -3 -3 -4 -5 -6 -6 -6 -6 -4 -6 -7 -7 -6 -5 -8
-0 -1 1 -0 -0 0 0 -1 -1 -1 -1 -1 -1 -1 -1 -1 -1 -2 -2 -2 -2 -2 -3 -3 -3 -3 -3 -3 -3 -4 -3 -3 -3 -4 -5 -5 -7 -7 -6 -6 -6 -6 -7 -7 -6 -8 -7
1 1 1 1 0 -0 0 -0 -0 -1 -1 -2 -1 -2 -2 -2 -2 -3 -2 -2 -2 -2 -3 -3 -3 -3 -3 -3 -4 -4 -3 -3 -4 -5 -6 -6 -7 -7 -7 -7 -7 -8 -7 -8 -8 -8 -8
1 1 1 1 2 2 1 0 -0 -1 -1 -2 -2 -2 -2 -2 -2 -2 -2 -3 -3 -3 -3 -3 -3 -3 -4 -4 -4 -5 -4 -5 -5 -6 -7 -8 -8 -8 -6 -5 -7 -7 -7 -7 -8 -10 -9
1 1 1 2 2 2 1 1 -0 -2 -2 -2 -2 -3 -2 -2 -2 -3 -3 -3 -3 -3 -3 -4 -4 -3 -4 -5 -5 -5 -5 -5 -6 -7 -7 -9 -9 -8 -8 -8 -9 -8 -9 -10 -9 -9 -10
1 1 1 1 1 1 1 1 0 -1 -2 -2 -3 -3 -3 -4 -4 -3 -3 -3 -4 -4 -4 -4 -4 -5 -6 -6 -6 -6 -6 -7 -8 -8 -9 -9 -10 -9 -9 -9 -10 -10 -10 -10 -10 -10 -11
1 1 1 1 2 2 1 1 -0 -1 -2 -2 -3 -4 -5 -4 -3 -3 -4 -4 -5 -5 -5 -5 -6 -6 -6 -6 -6 -6 -7 -8 -8 -9 -10 -11 -11 -11 -11 -12 -12 -12 -9 -9 -9 -9 -10
0 1 1 1 1 2 1 1 -0 -1 -2 -2 -3 -5 -4 -4 -3 -4 -5 -5 -6 -6 -6 -6 -7 -7 -6 -6 -6 -7 -8 -8 -8 -9 -10 -11 -12 -13 -12 -13 -15 -9 -11 -11 -10 -10 -10
-0 0 1 1 1 1 1 1 1 -1 -2 -4 -4 -4 -4 -5 -6 -6 -6 -7 -7 -6 -6 -7 -7 -7 -7 -7 -8 -8 -8 -8 -7 -8 -10 -12 -13 -13 -14 -15 -11 -10 -10 -11 -12 -11 -11
-0 -0 0 1 1 1 1 1 0 0 -0 -1 -2 -2 -2 -3 -2 -4 -5 -6 -6 -6 -6 -6 -7 -7 -7 -8 -8 -9 -9 -8 -9 -9 -9 -11 -14 -15 -15 -15 -16 -12 -11 -11 -11 -13 -11
-1 -0 -0 -0 -0 0 0 0 0 -0 0 -0 -1 -1 -2 -2 -2 -4 -5 -6 -7 -7 -7 -6 -7 -7 -8 -8 -9 -10 -10 -10 -10 -10 -10 -11 -15 -15 -16 -15 -14 -13 -12 -13 -14 -12 -13
-1 -1 -1 -1 -1 -1 -1 -0 -1 -1 -1 -1 -1 -1 -2 -2 -4 -5 -6 -7 -7 -7 -7 -7 -8 -7 -8 -9 -9 -9 -10 -10 -11 -11 -11 -12 -12 -15 -17 -17 -17 -13 -13 -14 -13 -13 -14
-2 -1 -1 -1 -1 -1 -1 -1 -1 -1 -1 -1 -1 -2 -3 -3 -4 -6 -7 -7 -8 -7 -7 -7 -8 -8 -8 -9 -9 -10 -11 -12 -12 -13 -13 -14 -13 -12 -14 -13 -12 -13 -14 -14 -14 -15 -15
Height
3147 3148 3148 3148 3148 3148 3148 3148 3147 3147 3146 3146 3145 3144 3143 3141 3140 3139 3137 3136 3135 3134 3131 3130 3129 3128 3127 3126 3126 3125 3125 3126 3127 3127 3128 3128 3130 3131 3132 3133 3135 3135 3137 3137 3138 3139 3140
3145 3145 3146 3146 3147 3147 3147 3147 3146 3146 3146 3145 3144 3143 3142 3141 3139 3137 3135 3135 3134 3133 3132 3129 3128 3127 3126 3126 3124 3123 3123 3123 3123 3124 3125 3126 3127 3128 3130 3130 3131 3132 3133 3134 3135 3136 3136
3143 3144 3144 3145 3146 3146 3146 3146 3145 3145 3144 3144 3143 3142 3141 3140 3139 3137 3134 3133 3132 3131 3130 3129 3127 3125 3125 3125 3123 3122 3122 3122 3122 3122 3122 3123 3125 3127 3128 3129 3129 3129 3131 3131 3131 3132 3132
3142 3142 3142 3143 3143 3143 3144 3144 3144 3143 3143 3142 3142 3141 3140 3138 3137 3136 3134 3132 3130 3129 3128 3127 3125 3124 3122 3122 3121 3121 3121 3121 3121 3121 3121 3122 3123 3125 3125 3126 3125 3126 3127 3127 3127 3127 3128
3139 3140 3140 3141 3141 3141 3141 3141 3141 3141 3141 3140 3140 3140 3138 3137 3135 3134 3133 3131 3129 3127 3126 3125 3124 3122 3121 3121 3120 3120 3120 3120 3120 3120 3121 3122 3122 3122 3123 3123 3124 3123 3121 3122 3123 3122 3123
3135 3137 3138 3138 3139 3139 3139 3139 3139 3139 3139 3138 3138 3138 3137 3135 3134 3132 3131 3130 3128 3126 3124 3123 3122 3123 3121 3120 3119 3119 3119 3119 3119 3119 3120 3120 3121 3121 3121 3122 3122 3120 3119 3118 3119 3120 3118
3131 3133 3134 3136 3136 3136 3137 3137 3137 3137 3137 3136 3136 3135 3135 3133 3132 3131 3130 3128 3129 3126 3122 3121 3119 3118 3117 3117 3116 3116 3116 3116 3118 3118 3118 3118 3119 3118 3119 3119 3120 3119 3119 3118 3117 3116 3115
3127 3128 3130 3132 3133 3133 3134 3135 3134 3134 3134 3134 3133 3133 3132 3131 3130 3129 3128 3126 3124 3123 3119 3116 3114 3113 3112 3112 3113 3113 3115 3116 3115 3116 3116 3118 3117 3117 3117 3117 3117 3117 3116 3115 3115 3114 3112
3121 3123 3125 3127 3129 3130 3130 3131 3131 3131 3131 3131 3131 3130 3130 3129 3128 3127 3125 3123 3121 3118 3116 3113 3111 3110 3111 3111 3110 3111 3112 3112 3113 3114 3115 3116 3116 3115 3115 3115 3114 3113 3112 3111 3111 3110 3109
3116 3117 3119 3121 3124 3125 3127 3127 3128 3128 3129 3129 3128 3128 3127 3126 3127 3124 3122 3121 3119 3117 3112 3113 3111 3110 3111 3109 3110 3110 3111 3114 3112 3113 3114 3114 3112 3112 3113 3114 3114 3112 3111 3110 3108 3108 3105
3109 3111 3113 3115 3118 3120 3122 3123 3123 3125 3125 3125 3125 3125 3124 3122 3123 3121 3121 3118 3116 3115 3113 3114 3111 3111 3109 3111 3111 3110 3109 3110 3111 3111 3113 3110 3109 3110 3109 3109 3110 3110 3109 3108 3107 3105 3101
3102 3105 3108 3109 3112 3115 3117 3118 3120 3120 3121 3121 3122 3121 3121 3121 3120 3119 3117 3115 3115 3115 3109 3111 3110 3110 3111 3110 3109 3109 3109 3109 3109 3108 3108 3108 3107 3107 3106 3104 3104 3104 3105 3105 3103 3102 3097
3095 3098 3100 3103 3106 3109 3111 3114 3115 3116 3117 3118 3118 3118 3118 3117 3118 3116 3115 3114 3114 3110 3111 3111 3109 3108 3108 3108 3108 3107 3107 3107 3107 3106 3103 3103 3103 3102 3102 3101 3101 3100 3102 3104 3101 3099 3090
3088 3092 3095 3098 3101 3104 3105 3108 3111 3112 3113 3113 3113 3114 3114 3114 3114 3114 3113 3115 3113 3110 3108 3108 3108 3106 3105 3105 3104 3104 3104 3104 3103 3102 3101 3100 3098 3097 3097 3097 3098 3098 3100 3101 3099 3096 3085
3082 3084 3088 3092 3096 3099 3101 3103 3105 3107 3108 3109 3109 3110 3111 3111 3111 3111 3111 3111 3111 3109 3108 3107 3105 3104 3104 3104 3105 3103 3102 3100 3098 3099 3100 3097 3094 3094 3094 3094 3096 3093 3094 3096 3096 3092 3087
3077 3080 3082 3087 3090 3093 3096 3097 3099 3101 3103 3104 3105 3107 3107 3108 3107 3107 3107 3108 3107 3107 3106 3105 3104 3103 3103 3103 3103 3101 3099 3098 3097 3096 3095 3094 3092 3090 3088 3090 3091 3090 3090 3091 3095 3095 3086
3072 3075 3078 3078 3083 3083 3090 3091 3093 3095 3098 3100 3100 3101 3102 3103 3103 3104 3102 3103 3103 3103 3103 3103 3101 3101 3100 3100 3099 3099 3096 3096 3094 3094 3093 3092 3090 3087 3085 3083 3083 3083 3081 3083 3085 3084 3079
3065 3068 3070 3074 3077 3080 3083 3086 3088 3090 3093 3094 3094 3097 3098 3098 3100 3099 3099 3099 3100 3099 3099 3099 3098 3097 3096 3095 3095 3094 3091 3090 3090 3091 3089 3088 3084 3079 3077 3076 3075 3074 3074 3076 3075 3069 3065
3057 3060 3062 3066 3069 3072 3075 3077 3080 3083 3087 3088 3088 3092 3093 3094 3094 3094 3094 3095 3095 3095 3096 3095 3095 3094 3093 3092 3091 3087 3086 3087 3086 3086 3084 3083 3078 3075 3069 3070 3068 3064 3063 3064 3065 3063 3054
3052 3054 3056 3059 3062 3064 3066 3069 3072 3076 3081 3083 3087 3084 3088 3088 3089 3090 3090 3090 3090 3090 3091 3090 3090 3090 3089 3087 3086 3082 3081 3080 3080 3080 3080 3077 3072 3070 3065 3063 3061 3058 3058 3059 3059 3055 3047
3046 3049 3052 3054 3055 3056 3059 3062 3066 3070 3074 3077 3079 3077 3082 3083 3085 3085 3087 3085 3086 3086 3086 3086 3084 3085 3085 3082 3080 3076 3076 3074 3072 3072 3073 3072 3061 3060 3055 3056 3052 3048 3046 3049 3046 3041 3039
3043 3045 3046 3048 3049 3050 3052 3055 3059 3063 3067 3070 3071 3073 3078 3078 3080 3080 3079 3081 3081 3082 3082 3081 3080 3079 3077 3076 3075 3072 3069 3069 3066 3062 3062 3061 3055 3049 3042 3046 3044 3033 3032 3030 3028 3025 3020
3039 3041 3042 3044 3044 3045 3047 3050 3052 3056 3060 3062 3065 3068 3071 3072 3072 3075 3075 3076 3075 3075 3075 3075 3074 3071 3071 3071 3067 3065 3063 3060 3058 3055 3055 3053 3050 3047 3036 3035 3033 3020 3012 3011 3012 3011 3010
3034 3037 3039 3040 3041 3042 3043 3045 3048 3051 3054 3057 3059 3062 3065 3065 3066 3068 3068 3069 3069 3068 3067 3066 3066 3065 3067 3063 3060 3057 3055 3051 3048 3044 3043 3042 3043 3044 3035 3034 3029 3008 3004 3004 3003 3003 3001
3030 3032 3034 3036 3037 3038 3041 3043 3044 3047 3049 3051 3053 3055 3056 3056 3060 3060 3061 3061 3060 3059 3059 3059 3061 3060 3057 3056 3053 3048 3045 3042 3037 3033 3031 3033 3035 3037 3033 3026 3008 3003 3000 3000 2997 2995 2996
3026 3028 3030 3033 3034 3036 3039 3040 3041 3043 3045 3047 3049 3049 3050 3050 3050 3053 3054 3054 3054 3053 3053 3053 3053 3052 3051 3049 3048 3043 3039 3035 3032 3027 3025 3025 3026 3030 3026 3023 3010 2995 2995 2994 2991 2989 2988
3020 3023 3026 3029 3031 3033 3034 3037 3038 3040 3041 3043 3044 3045 3045 3043 3044 3047 3049 3048 3048 3048 3046 3045 3043 3044 3044 3042 3040 3036 3032 3030 3025 3020 3018 3018 3018 3016 3018 3014 2997 2991 2991 2990 2992 2989 2985
3015 3019 3022 3025 3028 3030 3032 3033 3034 3036 3037 3039 3040 3039 3040 3038 3037 3038 3039 3041 3041 3042 3040 3039 3037 3033 3033 3032 3030 3028 3022 3020 3016 3012 3011 3012 3011 3007 3008 3008 2994 2986 2985 2988 2984 2980 2980
3010 3014 3017 3020 3021 3024 3027 3028 3030 3032 3033 3034 3034 3033 3034 3033 3031 3031 3031 3032 3034 3033 3033 3031 3030 3027 3025 3023 3021 3018 3015 3011 3008 3004 3002 3003 3001 2999 2998 2988 2985 2981 2980 2978 2977 2975 2974
Wind_Speed
2 2 1 2 1 1 0 1 3 4 5 6 8 8 9 11 13 13 12 13 13 12 11 10 8 6 5 4 4 6 6 5 7 9 10 14 16 18 19 20 20 21 20 22 20 20 20
4 3 4 3 3 3 2 2 2 4 5 6 7 9 10 11 12 12 13 12 13 13 12 11 9 8 7 6 6 6 6 4 7 9 11 14 17 18 18 18 20 18 20 20 21 22 23
6 6 5 5 5 4 4 4 3 4 5 6 7 8 10 11 13 14 12 13 14 15 14 12 10 9 7 6 4 3 3 2 5 7 9 11 15 15 13 14 17 18 18 22 24 24 24
9 8 7 7 6 5 4 4 4 4 5 6 7 8 9 11 12 14 14 13 13 14 15 13 10 10 8 5 4 3 2 4 4 5 9 12 14 14 12 13 15 17 17 20 22 24 25
11 11 10 9 8 6 5 4 4 5 5 6 8 8 9 11 12 12 14 16 15 13 13 14 15 10 6 4 4 4 5 6 7 8 9 11 13 16 16 15 14 17 12 21 17 21 24
14 13 12 11 9 8 6 5 4 4 6 7 9 10 11 11 12 13 15 16 16 15 12 17 9 10 7 9 11 10 8 8 8 8 10 12 15 16 17 17 9 12 21 17 19 15 22
17 16 15 13 12 10 8 7 5 5 8 9 10 11 12 12 13 15 16 16 17 17 16 13 18 18 16 14 12 10 9 9 9 9 11 12 13 15 15 17 19 10 13 16 17 20 19
20 19 18 15 13 11 9 9 9 9 8 8 9 10 12 13 14 14 16 17 18 18 20 18 17 17 14 12 11 9 9 9 9 11 11 11 13 13 14 16 17 17 18 20 20 20 22
25 22 21 18 16 13 11 11 11 11 10 10 10 10 12 13 14 16 16 16 16 17 19 14 9 9 8 8 8 8 9 10 10 10 11 11 9 11 14 17 18 20 22 23 24 22 23
28 27 25 20 17 14 13 13 13 12 11 12 12 11 13 15 16 18 16 15 15 15 11 5 8 6 8 6 5 7 10 10 10 8 9 10 14 15 14 16 17 20 18 21 22 18 12
29 29 26 21 17 14 13 12 10 11 12 13 13 14 13 13 15 14 13 15 14 10 4 5 6 7 8 6 6 6 5 7 10 11 9 10 13 13 15 17 17 17 18 17 19 19 23
29 24 26 23 20 18 15 13 13 13 13 12 14 12 12 14 14 12 15 13 12 3 3 3 3 7 13 10 8 7 6 7 9 14 16 18 19 18 17 17 18 19 17 17 19 18 7
24 27 18 20 17 17 15 13 12 12 12 14 14 12 13 15 11 13 12 11 5 3 2 1 4 15 14 12 11 11 11 13 13 10 13 13 17 20 20 20 19 18 13 5 4 2 6
34 22 20 16 18 13 16 13 15 16 17 16 15 16 13 11 11 10 11 11 5 3 4 8 11 16 20 16 11 6 10 14 16 17 17 10 8 12 14 18 13 11 15 7 6 3 5
20 20 17 19 17 16 19 21 20 16 17 17 15 14 14 12 11 12 11 5 4 4 5 15 18 11 7 4 12 16 12 16 15 9 7 5 7 8 14 14 13 10 16 17 14 17 7
14 18 20 21 24 19 21 20 19 20 20 17 13 14 12 14 13 13 13 11 11 11 15 13 9 6 10 17 17 12 10 10 13 10 9 10 11 14 18 19 20 22 15 8 10 3 6
26 25 25 28 23 23 23 22 21 24 19 16 14 17 18 18 13 14 13 14 11 10 9 9 12 14 17 16 16 15 9 14 17 17 15 15 14 13 18 16 22 24 29 19 14 15 5
25 28 28 31 31 30 29 31 27 28 16 22 21 19 17 17 15 13 14 12 12 11 11 11 13 17 18 17 19 16 17 14 16 19 19 18 13 19 25 25 27 30 31 32 21 11 19
28 28 27 27 28 31 34 32 33 24 22 21 18 22 15 14 14 17 16 15 13 13 12 12 12 15 19 21 15 10 16 16 17 17 10 11 11 10 6 14 23 32 34 37 39 36 29
22 22 23 25 27 28 30 31 29 29 27 17 21 21 20 14 18 20 15 17 18 16 14 16 14 16 20 22 20 17 19 17 21 23 22 23 25 29 27 29 25 24 27 25 34 31 32
20 20 21 21 22 24 26 26 27 28 25 26 27 21 23 14 17 20 23 14 14 15 18 12 16 17 19 23 25 24 24 24 27 26 26 25 35 35 41 40 43 47 46 36 37 44 38
17 17 15 15 16 18 20 20 22 25 26 27 26 24 27 22 23 23 13 20 16 18 16 17 23 23 25 26 24 29 30 30 32 30 24 29 33 36 44 40 39 48 48 49 52 52 55
15 12 10 10 11 13 16 16 19 22 30 30 29 28 22 23 25 18 17 14 22 23 25 26 27 22 18 22 30 33 34 33 33 34 32 33 33 25 23 24 23 33 37 31 35 40 44
14 12 11 9 7 8 10 13 17 20 22 22 20 20 16 17 19 23 23 19 16 25 31 27 19 21 26 27 27 31 34 36 37 38 37 37 32 22 21 20 6 15 16 17 20 20 24
15 14 11 11 8 6 6 8 10 13 16 14 17 18 21 26 23 24 21 20 21 18 18 19 24 28 27 27 27 26 26 28 26 30 34 34 31 19 8 11 32 38 33 27 23 26 22
17 14 12 12 11 10 9 9 8 9 10 12 16 14 17 19 18 16 17 18 15 17 20 21 21 23 23 25 23 13 10 17 10 10 13 24 29 29 15 7 7 7 4 10 16 22 21
19 17 15 14 13 12 11 11 10 10 11 12 13 15 17 18 20 18 15 15 18 21 25 23 24 23 23 24 24 23 20 23 11 12 12 17 23 36 30 17 20 25 27 24 13 18 11
21 19 17 15 14 14 14 14 13 12 13 14 15 18 18 20 21 19 21 18 20 20 22 26 26 27 22 20 17 18 17 18 17 23 18 16 12 14 19 14 17 20 21 20 22 22 19
23 21 20 18 16 15 15 14 14 15 14 16 19 19 20 22 23 23 24 27 26 28 27 29 26 30 23 21 16 14 18 23 28 25 26 22 26 20 19 16 24 26 25 24 24 26 26
Wind_Direction
233 259 233 252 229 226 263 17 16 7 9 10 11 13 11 11 13 11 11 12 12 7 6 5 6 354 329 297 280 276 262 238 223 213 207 210 210 213 214 218 219 220 223 223 221 226 229
239 238 249 241 247 259 272 301 341 346 346 350 350 353 356 359 3 6 5 2 359 357 357 354 349 346 331 304 292 276 272 247 228 215 215 220 219 216 218 218 217 225 225 229 230 233 237
246 248 247 247 249 248 257 267 285 307 321 330 336 339 345 350 352 358 359 0 356 351 347 340 334 332 334 325 311 271 238 219 232 213 206 218 227 226 232 222 221 225 227 231 231 233 238
253 245 248 249 247 247 257 271 286 297 301 313 321 328 334 339 344 349 352 354 357 352 348 339 331 324 316 312 303 269 248 208 209 218 203 207 217 225 232 229 219 217 223 225 234 233 236
253 252 247 246 247 242 240 252 267 283 298 310 311 315 322 327 332 337 340 341 344 346 343 338 326 318 306 298 304 289 260 216 224 229 223 218 212 219 225 226 222 224 234 230 236 233 232
248 249 250 247 246 246 242 240 254 284 308 311 309 308 311 316 321 327 330 334 333 333 329 327 322 319 296 293 288 286 271 248 238 227 221 217 214 220 227 223 233 246 232 234 230 244 240
243 247 244 243 239 238 242 247 255 283 304 306 304 306 308 311 317 321 324 327 326 327 322 316 304 297 290 286 279 276 254 249 243 233 228 225 223 230 236 235 235 257 250 259 254 247 252
240 241 238 234 232 228 235 251 265 277 291 306 312 310 310 311 314 319 322 323 321 316 317 309 300 294 286 275 266 258 251 246 238 232 236 234 241 246 247 242 245 250 256 260 264 259 261
237 233 231 227 226 233 243 254 266 270 282 295 305 306 311 310 310 320 325 321 323 323 317 311 322 325 312 283 267 255 247 246 243 245 247 243 265 256 248 249 250 255 258 257 259 268 273
237 230 223 219 225 235 246 259 264 264 271 291 300 299 301 304 310 317 322 320 321 325 309 333 348 3 5 351 310 287 265 256 247 253 256 268 264 265 260 259 260 263 261 257 259 263 259
239 235 221 217 223 233 243 254 248 259 269 289 287 299 301 302 314 315 322 321 320 325 337 341 14 4 15 1 336 336 315 254 256 266 261 267 276 276 271 264 260 261 268 264 265 267 271
240 230 228 221 224 228 235 240 250 262 275 280 290 291 298 303 315 320 321 322 316 291 261 310 357 12 349 341 329 311 292 267 274 272 271 273 279 278 273 269 259 258 267 277 278 272 264
229 221 214 220 220 221 227 240 256 266 275 283 290 284 297 301 311 330 335 341 309 226 290 322 325 326 328 326 312 299 288 285 277 284 280 284 279 274 266 262 260 255 254 291 293 212 242
239 215 222 227 223 221 226 250 254 266 271 284 288 286 285 290 305 317 320 323 271 254 294 315 325 318 313 313 310 317 310 300 283 269 269 278 279 268 263 254 251 257 230 210 252 246 280
202 203 231 220 239 237 247 250 259 263 273 267 281 273 278 276 289 296 300 305 270 285 308 316 315 313 312 317 316 315 315 293 282 277 240 263 251 272 271 262 243 243 227 240 255 285 292
225 232 228 233 232 233 245 245 249 255 282 265 263 266 274 290 293 284 292 274 273 278 299 307 308 283 292 307 310 309 303 281 288 286 273 269 281 264 258 255 247 238 239 218 201 284 273
238 235 233 239 249 241 261 242 252 263 271 247 253 252 271 283 281 282 291 279 277 281 297 303 293 288 295 300 298 300 268 283 281 280 278 275 262 271 266 259 265 247 234 223 221 221 216
243 244 243 234 236 232 234 240 253 258 243 260 245 259 265 274 261 286 307 260 264 281 295 295 297 290 286 293 292 288 277 277 290 290 284 278 270 265 278 273 265 256 247 245 228 224 229
241 239 243 246 244 232 239 247 248 243 237 238 254 261 267 272 268 282 287 257 261 286 282 300 295 292 294 295 290 271 285 294 291 280 267 278 249 278 280 268 260 249 250 244 241 245 248
236 240 240 241 241 241 243 244 241 235 222 241 260 257 263 262 275 287 261 274 262 266 273 282 289 297 297 294 293 278 281 286 289 289 276 266 256 253 256 277 282 272 272 265 250 242 249
230 232 234 237 241 241 242 241 237 226 226 240 239 255 253 259 276 272 282 253 281 253 285 270 290 305 299 285 289 283 290 294 291 287 275 262 265 270 273 271 270 272 273 265 251 254 240
228 229 230 233 235 238 241 237 232 231 222 231 239 238 248 271 274 288 252 285 280 286 273 283 296 296 286 285 286 288 292 291 291 288 278 262 262 274 277 278 276 275 271 266 262 261 260
219 220 224 234 236 234 235 230 225 221 216 223 234 251 256 264 267 257 282 275 290 288 286 292 300 291 283 293 291 293 291 289 283 281 276 271 268 274 279 286 286 281 282 273 270 266 265
209 211 212 212 216 220 218 216 213 217 223 232 234 243 244 249 259 272 279 279 265 271 286 290 282 279 296 301 298 294 290 288 283 278 272 265 267 259 272 289 263 270 268 271 263 262 259
206 205 201 201 202 196 192 193 201 211 215 221 238 245 250 258 263 270 275 277 277 297 287 282 280 292 297 296 294 291 292 292 285 270 262 260 254 244 244 226 275 281 273 263 267 269 261
208 208 211 213 208 211 213 206 205 205 214 231 242 254 264 267 277 270 277 273 287 300 297 291 292 293 293 287 286 270 270 284 268 269 255 246 243 237 231 241 249 281 279 262 273 280 269
208 211 213 219 224 224 219 222 222 226 234 244 254 256 259 269 274 275 275 277 277 288 287 294 294 290 287 283 273 266 265 256 257 253 265 236 237 229 233 245 266 262 271 271 261 280 279
210 211 214 217 222 225 227 228 230 233 242 253 257 261 267 273 272 278 285 281 280 280 282 290 288 284 281 268 262 269 257 262 255 259 265 259 248 225 225 236 263 265 264 255 273 274 273
214 215 216 220 226 233 237 238 242 247 249 257 264 272 271 274 276 277 276 278 279 283 286 283 275 285 277 275 273 265 260 268 275 267 267 252 249 261 236 261 272 281 276 280 275 272 271